Wetterdaten: Woche 25.12.17 - 31.12.17 (KW52)
Datum Zeit Temp. A. Pool Temp. Feuchte A. Luftdruck Regen Wind Richtung Sonnenschein ET UV Solar Taupunkt Windchill Windben Empfang
25.12.2017 00:00 2,8 C 4,0 C 92 % 1026,1 hPa 0,0 l/m 8,3 km/h (2 Bft) W-SW 0,00 h 0,000 mm 0,0 UV-I 0 W/m 1,7 C 1,1 C 12,3 km/h (3 Bft) 97,25 %
25.12.2017 01:00 2,5 C 4,1 C 93 % 1025,8 hPa 0,0 l/m 6,4 km/h (2 Bft) W-SW 0,00 h 0,000 mm 0,0 UV-I 0 W/m 1,5 C 2,0 C 8,9 km/h (2 Bft) 96,16 %
25.12.2017 02:00 2,1 C 4,3 C 93 % 1025,6 hPa 0,0 l/m 4,7 km/h (1 Bft) SW 0,00 h 0,000 mm 0,0 UV-I 0 W/m 1,1 C 2,0 C 6,9 km/h (2 Bft) 98,33 %
25.12.2017 03:00 1,7 C 4,4 C 95 % 1025,3 hPa 0,0 l/m 3,0 km/h (1 Bft) SW 0,00 h 0,000 mm 0,0 UV-I 0 W/m 1,0 C 1,7 C 4,9 km/h (1 Bft) 96,74 %
25.12.2017 04:00 1,6 C 4,4 C 95 % 1025,1 hPa 0,0 l/m 3,3 km/h (1 Bft) SW 0,00 h 0,000 mm 0,0 UV-I 0 W/m 0,9 C 1,6 C 5,3 km/h (1 Bft) 97,61 %
25.12.2017 05:00 1,7 C 4,4 C 95 % 1025,0 hPa 0,0 l/m 3,3 km/h (1 Bft) S-SW 0,00 h 0,000 mm 0,0 UV-I 0 W/m 0,9 C 1,7 C 5,0 km/h (1 Bft) 96,67 %
25.12.2017 06:00 1,2 C 4,4 C 95 % 1024,8 hPa 0,0 l/m 4,4 km/h (1 Bft) S-SW 0,00 h 0,000 mm 0,0 UV-I 0 W/m 0,5 C 1,3 C 6,8 km/h (2 Bft) 97,75 %
25.12.2017 07:00 0,7 C 4,3 C 96 % 1024,6 hPa 0,0 l/m 2,5 km/h (1 Bft) S-SW 0,00 h 0,000 mm 0,0 UV-I 5 W/m 0,2 C 0,7 C 4,0 km/h (1 Bft) 97,17 %
25.12.2017 08:00 0,6 C 4,4 C 97 % 1024,6 hPa 0,0 l/m 2,8 km/h (1 Bft) S-SW 0,00 h 0,000 mm 0,0 UV-I 15 W/m 0,2 C 0,6 C 4,7 km/h (1 Bft) 97,17 %
25.12.2017 09:00 0,7 C 4,4 C 97 % 1024,4 hPa 0,0 l/m 2,2 km/h (1 Bft) S 0,00 h 0,000 mm 0,0 UV-I 40 W/m 0,2 C 0,7 C 4,1 km/h (1 Bft) 96,59 %
25.12.2017 10:00 0,8 C 4,4 C 95 % 1024,2 hPa 0,0 l/m 1,4 km/h (1 Bft) SW 0,00 h 0,025 mm 0,0 UV-I 59 W/m 0,2 C 0,8 C 2,8 km/h (1 Bft) 97,32 %
25.12.2017 11:00 0,8 C 4,4 C 95 % 1023,7 hPa 0,0 l/m 3,1 km/h (1 Bft) SW 0,00 h 0,025 mm 0,0 UV-I 85 W/m 0,1 C 0,8 C 5,2 km/h (1 Bft) 97,68 %
25.12.2017 12:00 0,7 C 4,4 C 95 % 1022,9 hPa 0,0 l/m 2,5 km/h (1 Bft) S-SW 0,00 h 0,025 mm 0,0 UV-I 88 W/m 0,0 C 0,7 C 4,3 km/h (1 Bft) 96,74 %
25.12.2017 13:00 0,7 C 4,4 C 95 % 1022,0 hPa 0,0 l/m 1,4 km/h (1 Bft) S-SO 0,00 h 0,025 mm 0,0 UV-I 68 W/m 0,0 C 0,7 C 3,3 km/h (1 Bft) 97,03 %
25.12.2017 14:00 0,7 C 4,4 C 95 % 1021,3 hPa 0,0 l/m 1,5 km/h (1 Bft) W 0,00 h 0,025 mm 0,0 UV-I 44 W/m -0,0 C 0,7 C 2,5 km/h (1 Bft) 97,32 %
25.12.2017 15:00 0,5 C 4,4 C 96 % 1020,9 hPa 0,0 l/m 1,7 km/h (1 Bft) S-SO 0,00 h 0,025 mm 0,0 UV-I 20 W/m -0,1 C 0,5 C 3,2 km/h (1 Bft) 97,46 %
25.12.2017 16:00 -0,0 C 4,4 C 97 % 1020,5 hPa 0,0 l/m 1,9 km/h (1 Bft) SO 0,00 h 0,000 mm 0,0 UV-I 6 W/m -0,5 C -0,1 C 3,1 km/h (1 Bft) 96,52 %
25.12.2017 17:00 -0,2 C 4,4 C 97 % 1020,0 hPa 0,0 l/m 2,1 km/h (1 Bft) O-NO 0,00 h 0,000 mm 0,0 UV-I 0 W/m -0,6 C -0,2 C 3,2 km/h (1 Bft) 95,51 %
25.12.2017 18:00 -0,4 C 4,4 C 98 % 1019,7 hPa 0,0 l/m 2,8 km/h (1 Bft) O-NO 0,00 h 0,000 mm 0,0 UV-I 0 W/m -0,6 C -0,4 C 4,0 km/h (1 Bft) 96,81 %
25.12.2017 19:00 -0,6 C 4,4 C 98 % 1019,2 hPa 0,0 l/m 2,2 km/h (1 Bft) SO 0,00 h 0,000 mm 0,0 UV-I 0 W/m -0,9 C -0,6 C 3,9 km/h (1 Bft) 98,19 %
25.12.2017 20:00 -0,7 C 4,4 C 98 % 1018,5 hPa 0,0 l/m 1,5 km/h (1 Bft) O-SO 0,00 h 0,000 mm 0,0 UV-I 0 W/m -1,0 C -0,7 C 2,6 km/h (1 Bft) 96,67 %
25.12.2017 21:00 -1,3 C 4,4 C 98 % 1017,8 hPa 0,0 l/m 1,9 km/h (1 Bft) S-SW 0,00 h 0,000 mm 0,0 UV-I 0 W/m -1,6 C -1,3 C 3,4 km/h (1 Bft) 97,90 %
25.12.2017 22:00 -1,7 C 4,4 C 98 % 1017,0 hPa 0,0 l/m 0,7 km/h (0 Bft) O-SO 0,00 h 0,000 mm 0,0 UV-I 0 W/m -2,0 C -1,7 C 2,0 km/h (1 Bft) 96,16 %
25.12.2017 23:00 -1,7 C 4,4 C 98 % 1016,7 hPa 0,0 l/m 1,1 km/h (1 Bft) NO 0,00 h 0,000 mm 0,0 UV-I 0 W/m -2,0 C -1,7 C 2,5 km/h (1 Bft) 98,33 %
26.12.2017 00:00 -1,7 C 4,4 C 98 % 1016,0 hPa 0,0 l/m 1,5 km/h (1 Bft) O 0,00 h 0,000 mm 0,0 UV-I 0 W/m -2,0 C -1,7 C 3,3 km/h (1 Bft) 96,16 %
26.12.2017 01:00 -2,1 C 4,4 C 97 % 1015,6 hPa 0,0 l/m 2,6 km/h (1 Bft) SW 0,00 h 0,000 mm 0,0 UV-I 0 W/m -2,4 C -2,1 C 4,1 km/h (1 Bft) 97,68 %
26.12.2017 02:00 -2,3 C 4,4 C 97 % 1015,2 hPa 0,0 l/m 3,0 km/h (1 Bft) W-SW 0,00 h 0,000 mm 0,0 UV-I 0 W/m -2,7 C -2,3 C 4,7 km/h (1 Bft) 96,59 %
26.12.2017 03:00 -2,4 C 4,4 C 97 % 1014,5 hPa 0,0 l/m 1,2 km/h (1 Bft) W 0,00 h 0,000 mm 0,0 UV-I 0 W/m -2,8 C -2,4 C 2,4 km/h (1 Bft) 97,53 %
26.12.2017 04:00 -2,3 C 4,4 C 97 % 1014,1 hPa 0,0 l/m 0,5 km/h (0 Bft) W-NW 0,00 h 0,000 mm 0,0 UV-I 0 W/m -2,7 C -2,3 C 1,3 km/h (1 Bft) 96,88 %
26.12.2017 05:00 -2,3 C 4,4 C 97 % 1013,7 hPa 0,0 l/m 1,1 km/h (1 Bft) S-SW 0,00 h 0,000 mm 0,0 UV-I 0 W/m -2,7 C -2,3 C 2,6 km/h (1 Bft) 98,26 %
26.12.2017 06:00 -2,3 C 4,4 C 97 % 1013,3 hPa 0,0 l/m 1,5 km/h (1 Bft) W 0,00 h 0,000 mm 0,0 UV-I 0 W/m -2,7 C -2,3 C 2,9 km/h (1 Bft) 96,09 %
26.12.2017 07:00 -2,4 C 4,4 C 97 % 1013,0 hPa 0,0 l/m 0,5 km/h (0 Bft) S 0,00 h 0,000 mm 0,0 UV-I 6 W/m -2,8 C -2,4 C 1,5 km/h (1 Bft) 97,53 %
26.12.2017 08:00 -2,4 C 4,4 C 97 % 1012,8 hPa 0,0 l/m 0,7 km/h (0 Bft) S 0,03 h 0,000 mm 0,0 UV-I 20 W/m -2,8 C -2,4 C 1,7 km/h (1 Bft) 95,80 %
26.12.2017 09:00 -2,3 C 4,4 C 97 % 1012,6 hPa 0,0 l/m 1,5 km/h (1 Bft) O-SO 0,00 h 0,000 mm 0,0 UV-I 41 W/m -2,7 C -2,3 C 3,0 km/h (1 Bft) 98,12 %
26.12.2017 10:00 -2,3 C 4,4 C 97 % 1012,2 hPa 0,0 l/m 4,1 km/h (1 Bft) O-NO 0,00 h 0,025 mm 0,0 UV-I 61 W/m -2,7 C -2,3 C 6,1 km/h (2 Bft) 96,66 %
26.12.2017 11:00 -1,9 C 4,4 C 97 % 1011,8 hPa 0,0 l/m 2,4 km/h (1 Bft) NO 0,00 h 0,025 mm 0,0 UV-I 116 W/m -2,3 C -1,9 C 4,0 km/h (1 Bft) 97,32 %
26.12.2017 12:00 -1,7 C 4,4 C 98 % 1011,1 hPa 0,0 l/m 1,5 km/h (1 Bft) O-NO 0,00 h 0,025 mm 0,0 UV-I 115 W/m -2,0 C -1,7 C 2,8 km/h (1 Bft) 96,52 %
26.12.2017 13:00 -1,4 C 4,4 C 98 % 1010,4 hPa 0,0 l/m 2,9 km/h (1 Bft) O-NO 0,00 h 0,025 mm 0,0 UV-I 78 W/m -1,7 C -1,4 C 4,4 km/h (1 Bft) 97,82 %
26.12.2017 14:00 -1,3 C 4,4 C 98 % 1009,8 hPa 0,0 l/m 3,3 km/h (1 Bft) O-NO 0,00 h 0,025 mm 0,0 UV-I 52 W/m -1,5 C -1,3 C 5,2 km/h (1 Bft) 97,17 %
26.12.2017 15:00 -1,2 C 4,4 C 98 % 1009,6 hPa 0,0 l/m 2,5 km/h (1 Bft) O 0,10 h 0,025 mm 0,0 UV-I 33 W/m -1,5 C -1,2 C 3,9 km/h (1 Bft) 97,17 %
26.12.2017 16:00 -1,2 C 4,4 C 98 % 1010,1 hPa 0,0 l/m 3,4 km/h (1 Bft) W 0,07 h 0,000 mm 0,0 UV-I 10 W/m -1,5 C -1,2 C 5,9 km/h (2 Bft) 96,95 %
26.12.2017 17:00 -1,2 C 4,4 C 98 % 1010,9 hPa 0,0 l/m 7,4 km/h (2 Bft) S-SW 0,00 h 0,000 mm 0,0 UV-I 0 W/m -1,5 C -2,7 C 11,2 km/h (2 Bft) 97,53 %
26.12.2017 18:00 -1,2 C 4,4 C 98 % 1010,3 hPa 0,0 l/m 2,3 km/h (1 Bft) SW 0,00 h 0,000 mm 0,0 UV-I 0 W/m -1,5 C -1,3 C 3,9 km/h (1 Bft) 97,03 %
26.12.2017 19:00 -1,4 C 4,4 C 98 % 1010,0 hPa 0,0 l/m 5,1 km/h (1 Bft) N-NO 0,00 h 0,000 mm 0,0 UV-I 0 W/m -1,6 C -1,5 C 7,4 km/h (2 Bft) 96,96 %
26.12.2017 20:00 -1,6 C 4,4 C 98 % 1009,5 hPa 0,0 l/m 4,8 km/h (1 Bft) O-NO 0,00 h 0,000 mm 0,0 UV-I 0 W/m -1,9 C -1,9 C 7,3 km/h (2 Bft) 97,53 %
26.12.2017 21:00 -2,1 C 4,4 C 97 % 1008,7 hPa 0,0 l/m 4,7 km/h (1 Bft) O-NO 0,00 h 0,000 mm 0,0 UV-I 0 W/m -2,4 C -2,3 C 6,6 km/h (2 Bft) 96,74 %
26.12.2017 22:00 -2,2 C 4,4 C 97 % 1007,6 hPa 0,0 l/m 9,2 km/h (2 Bft) O-NO 0,00 h 0,000 mm 0,0 UV-I 0 W/m -2,6 C -5,0 C 12,7 km/h (3 Bft) 97,68 %
26.12.2017 23:00 -2,2 C 4,4 C 97 % 1006,4 hPa 0,0 l/m 7,4 km/h (2 Bft) O-NO 0,00 h 0,000 mm 0,0 UV-I 0 W/m -2,6 C -4,1 C 10,2 km/h (2 Bft) 96,67 %
27.12.2017 00:00 -2,3 C 4,4 C 97 % 1004,8 hPa 0,0 l/m 4,4 km/h (1 Bft) O-NO 0,00 h 0,000 mm 0,0 UV-I 0 W/m -2,7 C -2,5 C 6,3 km/h (2 Bft) 97,46 %
27.12.2017 01:00 -2,2 C 4,4 C 97 % 1003,4 hPa 0,0 l/m 5,4 km/h (1 Bft) NO 0,00 h 0,000 mm 0,0 UV-I 0 W/m -2,7 C -2,5 C 7,7 km/h (2 Bft) 96,67 %
27.12.2017 02:00 -2,2 C 4,4 C 97 % 1002,3 hPa 0,0 l/m 3,2 km/h (1 Bft) NO 0,00 h 0,000 mm 0,0 UV-I 0 W/m -2,6 C -2,2 C 4,8 km/h (1 Bft) 98,55 %
27.12.2017 03:00 -2,4 C 4,4 C 97 % 1000,6 hPa 0,0 l/m 7,6 km/h (2 Bft) O-NO 0,00 h 0,000 mm 0,0 UV-I 0 W/m -2,8 C -3,8 C 10,7 km/h (2 Bft) 97,10 %
27.12.2017 04:00 -2,3 C 4,4 C 97 % 999,1 hPa 0,0 l/m 10,6 km/h (2 Bft) O-NO 0,00 h 0,000 mm 0,0 UV-I 0 W/m -2,7 C -6,4 C 15,0 km/h (3 Bft) 97,82 %
27.12.2017 05:00 -1,8 C 4,4 C 97 % 997,8 hPa 0,0 l/m 8,8 km/h (2 Bft) O-NO 0,00 h 0,000 mm 0,0 UV-I 0 W/m -2,3 C -4,3 C 12,6 km/h (3 Bft) 96,45 %
27.12.2017 06:00 -1,7 C 4,4 C 97 % 996,7 hPa 0,0 l/m 12,5 km/h (3 Bft) O-NO 0,00 h 0,000 mm 0,0 UV-I 0 W/m -2,1 C -7,2 C 17,0 km/h (3 Bft) 98,40 %
27.12.2017 07:00 -1,9 C 4,4 C 97 % 995,9 hPa 0,0 l/m 14,7 km/h (3 Bft) O-NO 0,00 h 0,000 mm 0,0 UV-I 5 W/m -2,3 C -9,0 C 19,4 km/h (3 Bft) 96,52 %
27.12.2017 08:00 -1,9 C 4,4 C 97 % 994,9 hPa 0,0 l/m 13,2 km/h (3 Bft) O-NO 0,03 h 0,000 mm 0,0 UV-I 20 W/m -2,3 C -8,0 C 17,7 km/h (3 Bft) 97,68 %
27.12.2017 09:00 -1,7 C 4,4 C 97 % 994,2 hPa 0,0 l/m 11,0 km/h (2 Bft) O-NO 0,00 h 0,000 mm 0,0 UV-I 62 W/m -2,1 C -6,0 C 15,2 km/h (3 Bft) 96,59 %
27.12.2017 10:00 -1,3 C 4,4 C 98 % 993,8 hPa 0,0 l/m 7,8 km/h (2 Bft) O-NO 0,00 h 0,025 mm 0,0 UV-I 70 W/m -1,6 C -3,2 C 11,1 km/h (2 Bft) 98,69 %
27.12.2017 11:00 -1,1 C 4,4 C 98 % 992,3 hPa 0,0 l/m 8,9 km/h (2 Bft) O-NO 0,00 h 0,025 mm 0,0 UV-I 59 W/m -1,4 C -3,7 C 12,4 km/h (3 Bft) 94,27 %
27.12.2017 12:00 -0,7 C 4,4 C 98 % 991,2 hPa 0,0 l/m 5,1 km/h (1 Bft) N-NO 0,00 h 0,025 mm 0,0 UV-I 54 W/m -0,9 C -0,9 C 7,3 km/h (2 Bft) 97,68 %
27.12.2017 13:00 -0,3 C 4,4 C 98 % 990,3 hPa 0,0 l/m 2,9 km/h (1 Bft) SO 0,00 h 0,025 mm 0,0 UV-I 66 W/m -0,6 C -0,3 C 4,5 km/h (1 Bft) 96,74 %
27.12.2017 14:00 -0,2 C 4,4 C 98 % 989,3 hPa 0,0 l/m 1,9 km/h (1 Bft) SO 0,00 h 0,025 mm 0,0 UV-I 38 W/m -0,5 C -0,2 C 3,1 km/h (1 Bft) 98,11 %
27.12.2017 15:00 -0,2 C 4,4 C 98 % 988,5 hPa 0,0 l/m 6,5 km/h (2 Bft) O-NO 0,00 h 0,025 mm 0,0 UV-I 19 W/m -0,5 C -0,9 C 9,2 km/h (2 Bft) 96,45 %
27.12.2017 16:00 -0,2 C 4,4 C 98 % 987,8 hPa 0,0 l/m 6,4 km/h (2 Bft) O 0,00 h 0,000 mm 0,0 UV-I 6 W/m -0,5 C -1,3 C 9,7 km/h (2 Bft) 98,04 %
27.12.2017 17:00 0,3 C 4,4 C 98 % 987,1 hPa 0,0 l/m 8,7 km/h (2 Bft) SO 0,00 h 0,000 mm 0,0 UV-I 0 W/m 0,0 C -1,9 C 11,9 km/h (2 Bft) 97,17 %
27.12.2017 18:00 3,6 C 4,4 C 97 % 986,4 hPa 0,0 l/m 18,3 km/h (3 Bft) O 0,00 h 0,000 mm 0,0 UV-I 0 W/m 3,2 C -4,0 C 25,6 km/h (4 Bft) 97,53 %
27.12.2017 19:00 6,5 C 4,4 C 83 % 985,8 hPa 0,0 l/m 14,7 km/h (3 Bft) O 0,00 h 0,000 mm 0,0 UV-I 0 W/m 3,8 C 1,1 C 20,0 km/h (4 Bft) 97,39 %
27.12.2017 20:00 6,8 C 4,4 C 77 % 985,4 hPa 0,0 l/m 14,0 km/h (3 Bft) O 0,00 h 0,025 mm 0,0 UV-I 0 W/m 3,1 C 1,8 C 19,2 km/h (3 Bft) 96,96 %
27.12.2017 21:00 5,0 C 4,3 C 82 % 985,6 hPa 0,0 l/m 10,8 km/h (2 Bft) O 0,00 h 0,025 mm 0,0 UV-I 0 W/m 2,2 C 1,6 C 15,1 km/h (3 Bft) 97,39 %
27.12.2017 22:00 1,3 C 4,4 C 91 % 987,0 hPa 0,0 l/m 10,2 km/h (2 Bft) W-SW 0,00 h 0,025 mm 0,0 UV-I 0 W/m 0,0 C -2,1 C 14,3 km/h (3 Bft) 97,24 %
27.12.2017 23:00 0,9 C 4,4 C 92 % 988,0 hPa 0,0 l/m 11,3 km/h (2 Bft) W-SW 0,00 h 0,000 mm 0,0 UV-I 0 W/m -0,2 C -3,3 C 15,3 km/h (3 Bft) 97,75 %
28.12.2017 00:00 1,4 C 4,4 C 90 % 988,7 hPa 0,0 l/m 10,3 km/h (2 Bft) W-SW 0,00 h 0,000 mm 0,0 UV-I 0 W/m -0,1 C -2,0 C 14,4 km/h (3 Bft) 95,65 %
28.12.2017 01:00 2,0 C 4,3 C 90 % 989,0 hPa 0,4 l/m 13,7 km/h (3 Bft) W-SW 0,00 h 0,000 mm 0,0 UV-I 0 W/m 0,6 C -3,6 C 19,0 km/h (3 Bft) 97,82 %
28.12.2017 02:00 1,4 C 4,0 C 95 % 989,6 hPa 1,6 l/m 16,4 km/h (3 Bft) SW 0,00 h 0,000 mm 0,0 UV-I 0 W/m 0,7 C -6,0 C 23,0 km/h (4 Bft) 96,38 %
28.12.2017 03:00 1,2 C 3,9 C 96 % 990,1 hPa 1,2 l/m 18,5 km/h (3 Bft) SW 0,00 h 0,000 mm 0,0 UV-I 0 W/m 0,6 C -7,2 C 26,8 km/h (4 Bft) 97,90 %
28.12.2017 04:00 1,0 C 3,9 C 96 % 990,5 hPa 1,0 l/m 19,1 km/h (3 Bft) SW 0,00 h 0,000 mm 0,0 UV-I 0 W/m 0,4 C -7,9 C 26,0 km/h (4 Bft) 96,09 %
28.12.2017 05:00 1,2 C 3,9 C 96 % 991,2 hPa 1,2 l/m 21,0 km/h (4 Bft) SW 0,00 h 0,000 mm 0,0 UV-I 0 W/m 0,6 C -8,5 C 29,8 km/h (5 Bft) 98,04 %
28.12.2017 06:00 1,2 C 3,9 C 96 % 992,1 hPa 0,8 l/m 21,0 km/h (4 Bft) SW 0,00 h 0,000 mm 0,0 UV-I 0 W/m 0,6 C -8,4 C 30,1 km/h (5 Bft) 96,30 %
28.12.2017 07:00 1,5 C 3,9 C 95 % 993,1 hPa 0,4 l/m 17,2 km/h (3 Bft) SW 0,00 h 0,000 mm 0,0 UV-I 5 W/m 0,8 C -6,3 C 24,6 km/h (4 Bft) 97,32 %
28.12.2017 08:00 1,7 C 3,9 C 95 % 993,5 hPa 0,0 l/m 17,9 km/h (3 Bft) SW 0,00 h 0,000 mm 0,0 UV-I 24 W/m 0,9 C -6,4 C 24,9 km/h (4 Bft) 97,46 %
28.12.2017 09:00 2,0 C 3,9 C 93 % 994,1 hPa 0,0 l/m 17,7 km/h (3 Bft) SW 0,68 h 0,025 mm 0,0 UV-I 144 W/m 1,1 C -5,9 C 24,4 km/h (4 Bft) 97,54 %
28.12.2017 10:00 2,8 C 3,9 C 91 % 994,4 hPa 0,0 l/m 15,8 km/h (3 Bft) W-SW 0,45 h 0,051 mm 0,0 UV-I 148 W/m 1,4 C -4,0 C 22,1 km/h (4 Bft) 96,52 %
28.12.2017 11:00 3,4 C 3,9 C 89 % 994,7 hPa 0,0 l/m 14,6 km/h (3 Bft) W-SW 0,20 h 0,076 mm 0,0 UV-I 144 W/m 1,7 C -2,5 C 20,7 km/h (4 Bft) 97,90 %
28.12.2017 12:00 3,1 C 3,9 C 87 % 995,2 hPa 0,0 l/m 14,2 km/h (3 Bft) W-SW 0,00 h 0,076 mm 0,0 UV-I 49 W/m 1,3 C -2,7 C 20,0 km/h (4 Bft) 96,45 %
28.12.2017 13:00 2,7 C 3,9 C 89 % 995,6 hPa 0,0 l/m 15,8 km/h (3 Bft) W-SW 0,00 h 0,025 mm 0,0 UV-I 54 W/m 1,2 C -4,0 C 22,5 km/h (4 Bft) 97,24 %
28.12.2017 14:00 2,5 C 3,9 C 91 % 996,0 hPa 0,0 l/m 15,4 km/h (3 Bft) W-SW 0,00 h 0,025 mm 0,0 UV-I 39 W/m 1,2 C -4,1 C 21,6 km/h (4 Bft) 96,16 %
28.12.2017 15:00 2,0 C 3,9 C 93 % 997,0 hPa 0,6 l/m 15,9 km/h (3 Bft) W-SW 0,00 h 0,025 mm 0,0 UV-I 12 W/m 1,0 C -5,0 C 22,2 km/h (4 Bft) 97,75 %
28.12.2017 16:00 0,8 C 3,9 C 96 % 998,4 hPa 0,2 l/m 16,9 km/h (3 Bft) W-SW 0,00 h 0,000 mm 0,0 UV-I 5 W/m 0,2 C -7,0 C 22,8 km/h (4 Bft) 97,17 %
28.12.2017 17:00 0,7 C 3,9 C 97 % 999,7 hPa 0,4 l/m 17,2 km/h (3 Bft) W-SW 0,00 h 0,000 mm 0,0 UV-I 0 W/m 0,2 C -7,3 C 24,0 km/h (4 Bft) 96,95 %
28.12.2017 18:00 0,9 C 3,9 C 96 % 1000,9 hPa 0,6 l/m 17,4 km/h (3 Bft) W-SW 0,00 h 0,000 mm 0,0 UV-I 0 W/m 0,3 C -7,1 C 23,4 km/h (4 Bft) 97,25 %
28.12.2017 19:00 1,1 C 3,9 C 95 % 1002,0 hPa 0,4 l/m 16,6 km/h (3 Bft) W-SW 0,00 h 0,000 mm 0,0 UV-I 0 W/m 0,4 C -6,4 C 23,1 km/h (4 Bft) 97,03 %
28.12.2017 20:00 1,3 C 3,9 C 94 % 1003,0 hPa 0,0 l/m 15,5 km/h (3 Bft) W-SW 0,00 h 0,000 mm 0,0 UV-I 0 W/m 0,4 C -5,6 C 22,1 km/h (4 Bft) 97,46 %
28.12.2017 21:00 0,8 C 3,9 C 95 % 1003,9 hPa 0,4 l/m 16,1 km/h (3 Bft) W-SW 0,00 h 0,000 mm 0,0 UV-I 0 W/m 0,2 C -6,5 C 22,2 km/h (4 Bft) 97,03 %
28.12.2017 22:00 0,7 C 3,9 C 96 % 1004,7 hPa 0,2 l/m 15,9 km/h (3 Bft) W-SW 0,00 h 0,000 mm 0,0 UV-I 0 W/m 0,1 C -6,5 C 21,9 km/h (4 Bft) 98,19 %
28.12.2017 23:00 0,7 C 3,9 C 94 % 1005,9 hPa 0,0 l/m 16,8 km/h (3 Bft) W 0,00 h 0,000 mm 0,0 UV-I 0 W/m -0,1 C -7,1 C 23,9 km/h (4 Bft) 96,01 %
29.12.2017 00:00 0,8 C 3,9 C 92 % 1006,8 hPa 0,0 l/m 16,8 km/h (3 Bft) W-SW 0,00 h 0,000 mm 0,0 UV-I 0 W/m -0,5 C -7,0 C 23,7 km/h (4 Bft) 97,46 %
29.12.2017 01:00 0,8 C 3,9 C 90 % 1007,7 hPa 0,0 l/m 17,0 km/h (3 Bft) W-SW 0,00 h 0,000 mm 0,0 UV-I 0 W/m -0,7 C -7,0 C 24,0 km/h (4 Bft) 96,81 %
29.12.2017 02:00 0,7 C 3,9 C 88 % 1008,9 hPa 0,0 l/m 16,7 km/h (3 Bft) W-SW 0,00 h 0,025 mm 0,0 UV-I 0 W/m -1,1 C -6,9 C 24,5 km/h (4 Bft) 97,90 %
29.12.2017 03:00 0,3 C 3,9 C 85 % 1009,8 hPa 0,0 l/m 18,4 km/h (3 Bft) W 0,00 h 0,025 mm 0,0 UV-I 0 W/m -2,0 C -8,3 C 27,5 km/h (4 Bft) 96,38 %
29.12.2017 04:00 0,1 C 3,9 C 83 % 1010,8 hPa 0,0 l/m 15,5 km/h (3 Bft) W-SW 0,00 h 0,025 mm 0,0 UV-I 0 W/m -2,5 C -7,0 C 22,2 km/h (4 Bft) 97,82 %
29.12.2017 05:00 -0,1 C 3,9 C 84 % 1011,5 hPa 0,0 l/m 14,5 km/h (3 Bft) W-SW 0,00 h 0,025 mm 0,0 UV-I 0 W/m -2,4 C -6,6 C 20,4 km/h (4 Bft) 97,17 %
29.12.2017 06:00 -0,2 C 3,9 C 87 % 1012,0 hPa 0,0 l/m 15,8 km/h (3 Bft) W-SW 0,00 h 0,025 mm 0,0 UV-I 0 W/m -2,1 C -7,6 C 22,2 km/h (4 Bft) 95,36 %
29.12.2017 07:00 -0,2 C 3,9 C 87 % 1012,3 hPa 0,0 l/m 17,3 km/h (3 Bft) SW 0,00 h 0,025 mm 0,0 UV-I 5 W/m -2,2 C -8,4 C 24,1 km/h (4 Bft) 96,59 %
29.12.2017 08:00 -0,2 C 3,9 C 85 % 1012,6 hPa 0,0 l/m 15,8 km/h (3 Bft) SW 0,00 h 0,025 mm 0,0 UV-I 13 W/m -2,4 C -7,6 C 22,3 km/h (4 Bft) 97,90 %
29.12.2017 09:00 -0,1 C 3,8 C 84 % 1012,8 hPa 0,0 l/m 16,4 km/h (3 Bft) SW 0,00 h 0,025 mm 0,0 UV-I 54 W/m -2,4 C -7,8 C 22,9 km/h (4 Bft) 97,03 %
29.12.2017 10:00 0,6 C 3,5 C 78 % 1013,1 hPa 0,0 l/m 16,2 km/h (3 Bft) SW 0,30 h 0,025 mm 0,0 UV-I 144 W/m -2,9 C -6,9 C 22,9 km/h (4 Bft) 97,10 %
29.12.2017 11:00 1,0 C 3,3 C 74 % 1013,1 hPa 0,2 l/m 15,2 km/h (3 Bft) SW 0,47 h 0,076 mm 0,5 UV-I 207 W/m -3,2 C -5,8 C 22,0 km/h (4 Bft) 97,17 %
29.12.2017 12:00 1,8 C 3,3 C 66 % 1012,7 hPa 0,0 l/m 17,7 km/h (3 Bft) W-SW 1,00 h 0,102 mm 0,5 UV-I 327 W/m -3,9 C -6,1 C 24,8 km/h (4 Bft) 98,11 %
29.12.2017 13:00 2,1 C 3,3 C 62 % 1012,0 hPa 0,0 l/m 15,0 km/h (3 Bft) W-SW 1,00 h 0,152 mm 0,5 UV-I 275 W/m -4,4 C -4,2 C 21,2 km/h (4 Bft) 97,10 %
29.12.2017 14:00 2,1 C 3,3 C 61 % 1011,7 hPa 0,0 l/m 13,6 km/h (3 Bft) W-SW 1,00 h 0,152 mm 0,0 UV-I 186 W/m -4,6 C -3,4 C 18,9 km/h (3 Bft) 96,81 %
29.12.2017 15:00 1,7 C 3,4 C 64 % 1012,0 hPa 0,0 l/m 7,3 km/h (2 Bft) W-SW 1,00 h 0,102 mm 0,0 UV-I 78 W/m -4,4 C 0,5 C 11,1 km/h (2 Bft) 98,11 %
29.12.2017 16:00 0,8 C 3,3 C 66 % 1012,2 hPa 0,0 l/m 7,1 km/h (2 Bft) W-SW 0,10 h 0,051 mm 0,0 UV-I 11 W/m -4,8 C -0,5 C 10,1 km/h (2 Bft) 96,09 %
29.12.2017 17:00 -1,4 C 3,3 C 82 % 1011,9 hPa 0,0 l/m 1,6 km/h (1 Bft) S-SW 0,00 h 0,025 mm 0,0 UV-I 0 W/m -4,2 C -1,4 C 2,9 km/h (1 Bft) 98,04 %
29.12.2017 18:00 -1,8 C 3,3 C 80 % 1011,2 hPa 0,0 l/m 4,1 km/h (1 Bft) S-SO 0,00 h 0,000 mm 0,0 UV-I 0 W/m -4,8 C -1,9 C 6,4 km/h (2 Bft) 96,95 %
29.12.2017 19:00 -2,3 C 3,3 C 79 % 1010,3 hPa 0,0 l/m 6,6 km/h (2 Bft) O-SO 0,00 h 0,000 mm 0,0 UV-I 0 W/m -5,4 C -4,3 C 9,4 km/h (2 Bft) 98,33 %
29.12.2017 20:00 -2,9 C 3,3 C 82 % 1009,4 hPa 0,0 l/m 4,6 km/h (1 Bft) SO 0,00 h 0,000 mm 0,0 UV-I 0 W/m -5,6 C -3,4 C 7,2 km/h (2 Bft) 96,01 %
29.12.2017 21:00 -3,2 C 3,3 C 85 % 1008,6 hPa 0,0 l/m 3,4 km/h (1 Bft) O-NO 0,00 h 0,000 mm 0,0 UV-I 0 W/m -5,3 C -3,2 C 4,5 km/h (1 Bft) 97,61 %
29.12.2017 22:00 -3,1 C 3,3 C 86 % 1008,1 hPa 0,0 l/m 6,6 km/h (2 Bft) NO 0,00 h 0,000 mm 0,0 UV-I 0 W/m -5,0 C -3,7 C 8,7 km/h (2 Bft) 96,23 %
29.12.2017 23:00 -2,9 C 3,3 C 88 % 1008,1 hPa 0,0 l/m 3,8 km/h (1 Bft) O-NO 0,00 h 0,000 mm 0,0 UV-I 0 W/m -4,6 C -2,9 C 5,4 km/h (1 Bft) 97,75 %
30.12.2017 00:00 -2,9 C 3,3 C 90 % 1009,0 hPa 0,0 l/m 4,6 km/h (1 Bft) SW 0,00 h 0,000 mm 0,0 UV-I 0 W/m -4,2 C -3,0 C 6,7 km/h (2 Bft) 96,59 %
30.12.2017 01:00 -3,0 C 3,3 C 94 % 1009,4 hPa 0,0 l/m 4,7 km/h (1 Bft) S-SW 0,00 h 0,000 mm 0,0 UV-I 0 W/m -3,8 C -3,3 C 7,5 km/h (2 Bft) 97,75 %
30.12.2017 02:00 -2,7 C 3,3 C 95 % 1009,7 hPa 0,0 l/m 1,1 km/h (1 Bft) O-SO 0,00 h 0,000 mm 0,0 UV-I 0 W/m -3,4 C -2,8 C 2,4 km/h (1 Bft) 96,16 %
30.12.2017 03:00 -1,6 C 3,3 C 96 % 1009,6 hPa 0,0 l/m 5,3 km/h (1 Bft) SW 0,00 h 0,000 mm 0,0 UV-I 0 W/m -2,1 C -2,4 C 7,8 km/h (2 Bft) 97,39 %
30.12.2017 04:00 1,2 C 3,3 C 95 % 1009,5 hPa 0,0 l/m 16,1 km/h (3 Bft) SW 0,00 h 0,000 mm 0,0 UV-I 0 W/m 0,5 C -5,9 C 23,3 km/h (4 Bft) 97,61 %
30.12.2017 05:00 1,5 C 3,3 C 94 % 1009,9 hPa 0,0 l/m 17,8 km/h (3 Bft) SW 0,00 h 0,000 mm 0,0 UV-I 0 W/m 0,7 C -6,5 C 24,9 km/h (4 Bft) 96,88 %
30.12.2017 06:00 1,7 C 3,3 C 94 % 1010,8 hPa 0,2 l/m 16,6 km/h (3 Bft) SW 0,00 h 0,000 mm 0,0 UV-I 0 W/m 0,9 C -5,8 C 22,8 km/h (4 Bft) 97,90 %
30.12.2017 07:00 1,7 C 3,3 C 93 % 1011,4 hPa 0,6 l/m 10,0 km/h (2 Bft) SW 0,00 h 0,000 mm 0,0 UV-I 5 W/m 0,7 C -1,3 C 14,1 km/h (3 Bft) 96,88 %
30.12.2017 08:00 1,8 C 3,3 C 92 % 1011,8 hPa 0,4 l/m 4,1 km/h (1 Bft) W-SW 0,00 h 0,000 mm 0,0 UV-I 23 W/m 0,7 C 1,4 C 6,1 km/h (2 Bft) 97,90 %
30.12.2017 09:00 1,6 C 3,3 C 94 % 1011,6 hPa 0,8 l/m 1,5 km/h (1 Bft) W-SW 0,72 h 0,000 mm 0,0 UV-I 151 W/m 0,7 C 1,6 C 2,3 km/h (1 Bft) 95,51 %
30.12.2017 10:00 1,8 C 3,3 C 93 % 1011,3 hPa 0,8 l/m 3,5 km/h (1 Bft) NO 0,77 h 0,051 mm 0,0 UV-I 209 W/m 0,7 C 1,8 C 4,6 km/h (1 Bft) 98,55 %
30.12.2017 11:00 1,9 C 3,3 C 93 % 1010,3 hPa 0,4 l/m 4,5 km/h (1 Bft) O-NO 0,35 h 0,076 mm 0,0 UV-I 162 W/m 0,9 C 1,8 C 6,0 km/h (2 Bft) 96,23 %
30.12.2017 12:00 1,3 C 3,3 C 94 % 1009,1 hPa 0,0 l/m 7,5 km/h (2 Bft) NO 0,00 h 0,051 mm 0,0 UV-I 133 W/m 0,4 C -0,0 C 10,0 km/h (2 Bft) 97,54 %
30.12.2017 13:00 1,4 C 3,3 C 94 % 1008,7 hPa 0,0 l/m 2,9 km/h (1 Bft) N-NO 0,42 h 0,051 mm 0,0 UV-I 147 W/m 0,6 C 1,4 C 4,5 km/h (1 Bft) 96,67 %
30.12.2017 14:00 1,4 C 3,3 C 94 % 1008,4 hPa 0,0 l/m 3,2 km/h (1 Bft) N-NO 0,07 h 0,051 mm 0,0 UV-I 82 W/m 0,6 C 1,3 C 4,8 km/h (1 Bft) 97,75 %
30.12.2017 15:00 1,3 C 3,3 C 95 % 1008,5 hPa 0,8 l/m 1,9 km/h (1 Bft) S 0,00 h 0,025 mm 0,0 UV-I 22 W/m 0,6 C 1,3 C 3,2 km/h (1 Bft) 96,67 %
30.12.2017 16:00 1,1 C 3,4 C 97 % 1008,6 hPa 1,2 l/m 2,2 km/h (1 Bft) S-SO 0,00 h 0,000 mm 0,0 UV-I 6 W/m 0,7 C 1,0 C 3,8 km/h (1 Bft) 97,53 %
30.12.2017 17:00 1,2 C 3,4 C 97 % 1008,9 hPa 1,2 l/m 3,6 km/h (1 Bft) N-NO 0,00 h 0,000 mm 0,0 UV-I 0 W/m 0,8 C 0,9 C 5,6 km/h (1 Bft) 96,09 %
30.12.2017 18:00 1,0 C 3,3 C 98 % 1009,7 hPa 0,0 l/m 4,2 km/h (1 Bft) O-NO 0,00 h 0,000 mm 0,0 UV-I 0 W/m 0,6 C 0,7 C 6,4 km/h (2 Bft) 98,33 %
30.12.2017 19:00 1,3 C 3,4 C 98 % 1010,0 hPa 0,0 l/m 2,1 km/h (1 Bft) O-SO 0,00 h 0,000 mm 0,0 UV-I 0 W/m 1,0 C 1,2 C 3,2 km/h (1 Bft) 96,09 %
30.12.2017 20:00 1,2 C 3,4 C 98 % 1010,2 hPa 0,4 l/m 3,0 km/h (1 Bft) S 0,00 h 0,000 mm 0,0 UV-I 0 W/m 1,0 C 0,8 C 4,8 km/h (1 Bft) 90,51 %
30.12.2017 21:00 1,2 C 3,6 C 98 % 1010,5 hPa 0,0 l/m 3,6 km/h (1 Bft) NO 0,00 h 0,000 mm 0,0 UV-I 0 W/m 0,9 C 0,8 C 5,6 km/h (1 Bft) 97,17 %
30.12.2017 22:00 1,5 C 3,4 C 98 % 1010,4 hPa 0,0 l/m 2,6 km/h (1 Bft) SO 0,00 h 0,000 mm 0,0 UV-I 0 W/m 1,2 C 1,4 C 4,0 km/h (1 Bft) 97,75 %
30.12.2017 23:00 1,5 C 3,4 C 98 % 1010,4 hPa 1,8 l/m 1,6 km/h (1 Bft) SO 0,00 h 0,000 mm 0,0 UV-I 0 W/m 1,3 C 1,5 C 3,0 km/h (1 Bft) 96,66 %
31.12.2017 00:00 2,0 C 3,5 C 98 % 1010,4 hPa 3,2 l/m 4,7 km/h (1 Bft) SO 0,00 h 0,000 mm 0,0 UV-I 0 W/m 1,7 C 1,4 C 7,1 km/h (2 Bft) 97,61 %
31.12.2017 01:00 2,8 C 3,4 C 98 % 1010,7 hPa 1,8 l/m 3,2 km/h (1 Bft) NO 0,00 h 0,000 mm 0,0 UV-I 0 W/m 2,5 C 2,7 C 4,9 km/h (1 Bft) 95,43 %
31.12.2017 02:00 6,3 C 3,4 C 99 % 1010,6 hPa 0,2 l/m 13,1 km/h (3 Bft) SW 0,00 h 0,000 mm 0,0 UV-I 0 W/m 6,1 C 2,3 C 19,4 km/h (3 Bft) 96,52 %
31.12.2017 03:00 9,1 C 3,3 C 93 % 1010,9 hPa 0,0 l/m 24,6 km/h (4 Bft) W-SW 0,00 h 0,000 mm 0,0 UV-I 0 W/m 8,0 C 0,8 C 35,5 km/h (5 Bft) 98,11 %
31.12.2017 04:00 9,3 C 3,3 C 90 % 1011,8 hPa 0,6 l/m 20,2 km/h (4 Bft) W-SW 0,00 h 0,025 mm 0,0 UV-I 0 W/m 7,7 C 2,4 C 28,3 km/h (4 Bft) 96,23 %
31.12.2017 05:00 9,5 C 3,3 C 86 % 1012,1 hPa 0,0 l/m 18,6 km/h (3 Bft) SW 0,00 h 0,025 mm 0,0 UV-I 0 W/m 7,2 C 3,2 C 25,6 km/h (4 Bft) 97,53 %
31.12.2017 06:00 10,3 C 3,3 C 78 % 1012,6 hPa 0,0 l/m 19,0 km/h (3 Bft) SW 0,00 h 0,025 mm 0,0 UV-I 0 W/m 6,7 C 4,0 C 27,2 km/h (4 Bft) 96,88 %
31.12.2017 07:00 10,5 C 3,3 C 75 % 1012,9 hPa 0,0 l/m 18,5 km/h (3 Bft) W-SW 0,00 h 0,051 mm 0,0 UV-I 6 W/m 6,2 C 4,4 C 25,2 km/h (4 Bft) 97,75 %
31.12.2017 08:00 10,5 C 3,3 C 73 % 1013,1 hPa 0,0 l/m 21,1 km/h (4 Bft) SW 0,05 h 0,051 mm 0,0 UV-I 22 W/m 5,8 C 3,6 C 28,7 km/h (4 Bft) 96,09 %
31.12.2017 09:00 11,5 C 3,3 C 68 % 1013,8 hPa 0,2 l/m 20,6 km/h (4 Bft) W-SW 0,00 h 0,076 mm 0,0 UV-I 45 W/m 5,8 C 5,1 C 28,6 km/h (4 Bft) 97,39 %
31.12.2017 10:00 12,1 C 3,4 C 65 % 1014,1 hPa 0,0 l/m 18,8 km/h (3 Bft) W-SW 0,00 h 0,102 mm 0,0 UV-I 73 W/m 5,7 C 6,4 C 26,3 km/h (4 Bft) 96,37 %
31.12.2017 11:00 12,0 C 3,6 C 66 % 1013,8 hPa 0,0 l/m 18,8 km/h (3 Bft) SW 0,13 h 0,102 mm 0,6 UV-I 140 W/m 5,8 C 6,3 C 26,4 km/h (4 Bft) 96,66 %
31.12.2017 12:00 13,1 C 3,7 C 62 % 1013,4 hPa 0,0 l/m 19,3 km/h (3 Bft) W-SW 1,00 h 0,152 mm 0,6 UV-I 339 W/m 6,0 C 7,6 C 27,6 km/h (4 Bft) 96,81 %
31.12.2017 13:00 13,3 C 3,9 C 59 % 1013,1 hPa 0,0 l/m 25,4 km/h (4 Bft) W-SW 0,70 h 0,254 mm 0,5 UV-I 221 W/m 5,4 C 6,2 C 37,5 km/h (5 Bft) 98,69 %
31.12.2017 14:00 13,1 C 3,9 C 60 % 1012,6 hPa 0,0 l/m 18,0 km/h (3 Bft) W-SW 1,00 h 0,229 mm 0,0 UV-I 208 W/m 5,5 C 7,9 C 25,5 km/h (4 Bft) 96,30 %
31.12.2017 15:00 12,3 C 3,9 C 64 % 1012,1 hPa 0,0 l/m 9,2 km/h (2 Bft) W-SW 1,00 h 0,178 mm 0,0 UV-I 91 W/m 5,7 C 10,5 C 13,5 km/h (3 Bft) 97,46 %
31.12.2017 16:00 10,4 C 3,9 C 71 % 1011,7 hPa 0,0 l/m 4,0 km/h (1 Bft) S-SW 0,13 h 0,076 mm 0,0 UV-I 12 W/m 5,4 C 10,4 C 6,5 km/h (2 Bft) 96,30 %
31.12.2017 17:00 9,7 C 3,9 C 70 % 1010,8 hPa 0,0 l/m 7,3 km/h (2 Bft) S-SO 0,00 h 0,025 mm 0,0 UV-I 0 W/m 4,5 C 9,0 C 11,4 km/h (2 Bft) 97,68 %
31.12.2017 18:00 9,6 C 3,9 C 69 % 1010,3 hPa 0,0 l/m 5,9 km/h (2 Bft) S-SO 0,00 h 0,025 mm 0,0 UV-I 0 W/m 4,1 C 9,3 C 10,2 km/h (2 Bft) 96,01 %
31.12.2017 19:00 7,3 C 3,9 C 77 % 1009,7 hPa 0,0 l/m 2,9 km/h (1 Bft) S 0,00 h 0,025 mm 0,0 UV-I 0 W/m 3,5 C 7,3 C 5,0 km/h (1 Bft) 98,48 %
31.12.2017 20:00 5,4 C 3,9 C 84 % 1009,2 hPa 0,0 l/m 2,5 km/h (1 Bft) O 0,00 h 0,000 mm 0,0 UV-I 0 W/m 3,0 C 5,4 C 3,9 km/h (1 Bft) 96,45 %
31.12.2017 21:00 4,5 C 3,9 C 88 % 1008,5 hPa 0,0 l/m 1,5 km/h (1 Bft) O 0,00 h 0,000 mm 0,0 UV-I 0 W/m 2,7 C 4,5 C 2,3 km/h (1 Bft) 97,10 %
31.12.2017 22:00 3,6 C 3,9 C 90 % 1007,9 hPa 0,0 l/m 2,2 km/h (1 Bft) O 0,00 h 0,000 mm 0,0 UV-I 0 W/m 2,1 C 3,6 C 3,5 km/h (1 Bft) 98,69 %
31.12.2017 23:00 3,4 C 3,9 C 91 % 1007,4 hPa 0,0 l/m 2,7 km/h (1 Bft) SO 0,00 h 0,000 mm 0,0 UV-I 0 W/m 2,0 C 3,3 C 3,9 km/h (1 Bft) 95,94 %
Min-Datum _ 29.12.17 29.12.17 31.12.17 27.12.17 - 25.12.17 - - - - - 29.12.17 29.12.17 25.12.17 30.12.17
_ Min-Zeit 20:52 09:19 12:52 21:06 - 03:02 - - - - - 20:06 07:27 07:19 20:17
Minimum _ -3,3 C 3,3 C 58 % 985,1 hPa - 0,0 km/h (0 Bft) - - - - - -5,8 C -12,8 C 0,0 km/h (0 Bft) 0,00 %
Max-Datum _ 31.12.17 25.12.17 31.12.17 25.12.17 31.12.17 31.12.17 - 26.12.17 31.12.17 29.12.17 31.12.17 31.12.17 31.12.17 31.12.17 25.12.17
_ Max-Zeit 12:50 00:00 01:51 00:00 00:00 13:04 - 08:06 13:00 11:59 13:09 03:15 15:29 13:31 00:00
Maximum _ 13,7 C 4,4 C 99 % 1026,2 hPa 3,2 l/m 35,4 km/h
W-SW (5 Bft)
- 0,02 h 0,254 mm 0,6 UV-I 397 W/m 8,6 C 12,4 C 53,1 km/h
W-SW (7 Bft)
100,00 %
Durchschnitt _ 1,4 C 3,9 C 91 % 1007,8 hPa #24,2 l/m 8,8 km/h (2 Bft) W-SW #12:46 h #3,439 mm 0,5 UV-I 77 W/m -0,1 C -1,5 C 12,6 km/h (3 Bft) 97,08 %